Regional Weather Roundup
Issued by NWS Northern Indiana

Home | Current Version | Previous Version | Graphics & Text | Print | Product List | Glossary On
Versions: 1 2 3 4 5 6 7 8 9 10 11 12 13 14 15 16 17 18 19 20 21 22 23 24 25 26 27 28 29 30 31 32 33 34 35 36 37 38 39 40 41 42 43 44 45 46 47 48 49 50
000
ASUS43 KIWX 282210
RWRIWX

KIWX WEATHER ROUNDUP
NATIONAL WEATHER SERVICE NORTHERN INDIANA
600 PM EDT SAT MAY 28 2016

NOTE: "FAIR" INDICATES FEW OR NO CLOUDS BELOW 12,000 FEET WITH NO
SIGNIFICANT WEATHER AND/OR OBSTRUCTIONS TO VISIBILITY.

* THESE STATIONS ARE NOT UNDER NWS QUALITY CONTROL. THEY ALSO MAY NOT
  REPORT WEATHER SUCH AS PRECIPITATION OR FOG.

INZ001>027-282300-
NORTHERN INDIANA

CITY           SKY/WX    TMP DP  RH WIND       PRES   REMARKS
GARY*          MOSUNNY   82  72  69 S9        29.92F
VALPARAISO     MOSUNNY   83  63  50 S20       29.94F
MICHIGAN CITY* CLOUDY    81  64  57 S10G16    29.94F
LAPORTE*       CLOUDY    83  64  51 SW17G23   29.95F
KNOX*            N/A     84  45  24 SW18        N/A
SOUTH BEND     CLOUDY    83  61  47 SW18      29.96S
ELKHART*       CLOUDY    86  66  51 SW10      29.97S
GOSHEN         PTSUNNY   82  57  42 SW18      29.97S
MONTICELLO*    CLOUDY    84  54  35 S21       29.96F
LOGANSPORT*    LGT RAIN  79  63  57 S15       30.01R
ROCHESTER*     CLOUDY    82  61  47 SW14G20   29.98S
WARSAW*        CLOUDY    82  59  44 SW8       29.98R
ANGOLA*          N/A     86  59  39 S14       29.98S
FORT WAYNE     CLOUDY    84  59  42 S16       30.00S
HUNTINGTON*    CLOUDY    82  58  43 SW13G21   30.00R
PERU/GRISSOM   LGT RAIN  74  67  79 SW14      30.00R
MARION*        CLOUDY    81  62  52 S16G25    30.02R

$$
INZ028>050-282300-
CENTRAL INDIANA

CITY           SKY/WX    TMP DP  RH WIND       PRES   REMARKS
LAFAYETTE      CLOUDY    82  62  50 S13G20    29.97S
KOKOMO*        PTSUNNY   75  63  64 SW15      30.01R
MUNCIE*        LGT RAIN  76  64  66 S16G29    30.05R
INDIANAPOLIS   CLOUDY    79  65  62 S14       30.01R

$$
MIZ043>046-050>051-056>058-064>065-071>073-077>080-282300-
SOUTHWEST LOWER MICHIGAN

CITY           SKY/WX    TMP DP  RH WIND       PRES   REMARKS
BATTLE CREEK   MOSUNNY   84  60  44 SW16      29.97S
BENTON HARBOR  PTSUNNY   81  62  52 S9G21     29.94S
COLDWATER*     MOSUNNY   85  57  38 SW10G20   29.97F
HILLSDALE*     PTSUNNY   83  55  37 S9G16     30.00F
HOLLAND        PTSUNNY   79  62  56 SW15      29.95S
GRAND RAPIDS   MOSUNNY   85  62  46 SW17G25   29.95F
KALAMAZOO      PTSUNNY   82  61  48 SW12      29.96S
STURGIS*       MOSUNNY   85  60  42 SW22      29.96S
THREE RIVERS*  PTSUNNY   83  56  39 SW10G20   29.97R

$$
OHZ001>008-015>018-024>025-282300-
NORTHWEST OHIO

CITY           SKY/WX    TMP DP  RH WIND       PRES   REMARKS
WAUSEON*         N/A     82  82 100 S18G24    30.01S HX  97
DEFIANCE       MOSUNNY   82  64  54 S12G22    30.01S
FINDLAY        CLOUDY    77  65  66 S10       30.04F
TOLEDO EXPRESS CLOUDY    82  65  56 S9        30.02R
TOLEDO METCALF CLOUDY    77  65  66 S10       30.04R
LIMA           CLOUDY    76  68  76 S8        30.05S

$$
AND FOR LAKE MICHIGAN COASTAL AND OPEN LAKE BUOY OBSERVATIONS

STATION/POSITION TEMP    WIND        PRES    VSBY  WAVE
                 AIR SEA DIR/SP/G                  HT/PER
                 (F)     (DEG/KT/KT) (MB)    (MI)  (FT/S)
CALUMET HARBOR    80     200/ 15/ 23 1012.2F
MICHIGAN CITY     78     180/ 15/ 19   N/A
BURNS HARBOR      78     190/ 20     1013.9S
SAINT JOSEPH      77     180/  9/ 16 1014.2S
SOUTH LAKE BUOY   58 50  160/ 10/ 12 1012.5F         1/ 4
4 MI NW BRIDGMAN  70 61  190/ 10/ 12   N/A           2/ 4
MICHIGAN CITY     72 57  200/ 12/ 17   N/A           2/ 3

$$
&&




USA.gov is the U.S. government's official web portal to all federal, state and local government web resources and services.